STARLINK-2478 (48135 NORAD) Tracking and Keplerian Element Data

This shows tracking and keplerian element data for the satellite.

Feedback or suggestion? Click here.




ElementValue
Catalog48135
NameSTARLINK-2478
Epoch Orbit178
Epoch Day136.75001157
Epoch Year2021
RAAN149.1936
Inclination53.0468
Eccentricity0.0001328
Argument of Perigee69.9624
Mean Anonmoly194.8221
Mean Motion15.27767012
Decay Rate-0.010662
L11 48135U 21027AV 21136.75001157 -.01066200 00000-0 -42318-1 0 9998
L22 48135 53.0468 149.1936 0001328 69.9624 194.8221 15.27767012 1783

Live tracking and technical data element details for STARLINK-2478 (NORAD 48135). STARLINK-2478 can be tracked NOW for your location showing map with azimuth and elevation plus other details from your city location.

Track the satellite on the map from your city or location and see movement details for azimuth, elevation, latitude, longitude, range, height, and movement on the map or in text.







IsCatalogInMostPopularTable: catalog: 48135, numindb: 14
Update: records affected: 1



GetName: 48135 STARLINK-2478

Hit Count: updated at: Mon, 17 May 2021 16:51:51 GMT